Temp
18 18 18 18 18 18 19 18 18 18 19 20 20 20 20 19 19 20 20 20 20 20 20 20 20 20 19 19 18 18 18 18 18 19 19 19 19 20 20 20 20 20 19
17 17 17 17 17 17 17 18 17 18 18 18 19 20 20 19 17 18 19 19 19 20 20 20 20 20 20 20 19 19 19 19 18 18 19 18 18 19 21 20 20 19 19
17 17 17 17 17 16 17 17 17 18 18 18 17 18 19 19 19 17 17 18 18 18 19 20 20 20 20 20 20 19 19 19 19 18 18 18 18 18 18 20 20 20 20
17 17 17 17 17 17 18 17 17 17 17 17 17 17 17 18 19 18 17 17 18 18 18 18 19 19 20 20 20 19 19 19 19 19 18 18 18 18 18 18 19 19 19
16 17 17 17 17 17 16 16 16 16 16 15 15 16 17 17 17 18 18 17 17 18 17 18 18 19 19 19 19 19 18 18 18 18 19 19 19 19 18 18 18 19 19
17 17 16 17 17 16 15 14 13 13 13 14 15 15 15 16 16 16 17 18 18 17 17 18 18 18 17 18 18 18 18 17 18 18 19 19 18 18 18 18 18 18 19
13 13 14 14 14 14 14 13 11 10 11 12 12 13 14 14 15 16 15 16 17 18 17 18 18 17 17 19 20 21 21 19 20 19 18 18 18 18 19 18 17 17 18
8 8 7 8 8 8 9 9 10 9 9 10 11 12 12 13 14 14 15 15 16 17 19 18 18 17 18 18 20 22 21 21 20 19 18 18 19 19 18 18 18 17 17
5 4 5 6 7 7 7 7 7 7 7 7 8 10 11 12 13 14 14 15 15 17 18 18 17 17 18 17 18 18 18 17 16 18 19 18 18 18 17 17 17 16 16
5 5 6 6 6 6 7 7 7 6 6 6 7 6 9 11 12 14 14 14 15 16 18 19 18 17 17 17 17 17 17 16 15 16 17 18 18 18 18 17 17 16 16
6 6 6 6 5 5 5 5 5 5 5 5 5 6 6 9 12 14 15 14 15 15 17 17 17 18 17 17 17 16 16 17 17 16 16 16 16 17 17 17 18 17 17
7 7 6 7 5 5 5 6 6 6 6 6 6 6 6 8 11 14 15 15 15 15 17 17 15 16 17 17 16 16 16 16 15 15 15 15 15 17 17 16 17 16 17
8 7 7 6 6 5 6 6 6 6 6 6 6 6 6 6 9 14 15 15 16 15 16 16 14 16 16 16 16 16 15 15 15 15 15 16 16 16 15 15 15 16 16
8 8 7 6 6 6 6 6 6 7 7 7 7 7 7 7 10 12 14 14 15 13 14 14 15 16 16 16 15 15 15 15 15 15 15 15 15 15 15 15 15 15 15
9 8 8 6 5 5 6 6 7 8 8 8 8 8 7 7 9 11 11 12 13 14 15 15 15 15 15 15 15 15 15 15 15 15 14 14 14 14 14 15 14 14 15
9 9 8 7 6 5 5 5 7 8 9 9 9 9 9 8 8 10 12 13 13 13 14 14 15 15 14 15 15 14 14 14 14 13 14 14 14 14 14 14 14 14 14
10 10 9 8 7 5 6 5 5 7 8 8 9 8 9 11 11 11 12 12 13 13 13 13 14 14 14 14 14 13 13 13 13 13 13 13 13 13 13 13 13 13 13
10 10 10 9 8 5 5 6 5 6 6 7 8 8 8 11 12 13 13 13 13 12 13 13 13 13 13 13 13 13 13 13 13 12 12 12 12 12 12 12 12 12 12
11 11 10 10 9 8 6 6 5 5 5 6 7 8 8 9 12 13 12 12 12 13 12 12 13 13 12 12 12 12 12 12 12 12 12 12 12 12 11 11 11 11 10
11 11 11 11 10 9 8 6 6 6 5 5 6 7 7 7 8 10 11 11 11 11 11 11 11 11 11 11 11 11 11 12 12 12 12 12 12 11 11 11 11 11 10
12 12 12 12 11 10 10 8 7 7 6 5 5 5 6 6 7 7 7 10 10 10 10 11 11 11 11 12 12 12 12 12 12 12 12 12 12 12 12 12 12 11 11
12 12 12 12 12 11 11 11 9 8 7 7 6 6 6 6 6 7 7 8 8 9 10 11 11 11 11 11 11 11 11 11 11 11 12 12 12 12 12 12 11 11 11
12 12 12 11 11 11 11 11 11 10 9 8 8 8 7 7 7 7 7 7 8 8 9 10 11 11 11 11 11 11 11 11 11 11 10 10 10 11 11 11 11 12 12
12 12 12 12 11 11 10 10 10 10 10 10 9 9 8 8 8 8 8 8 8 8 8 7 8 9 10 10 10 10 10 10 10 11 11 10 10 10 10 11 11 11 11
12 12 12 12 12 12 11 10 10 10 9 9 9 9 8 8 8 9 9 9 9 9 9 9 9 9 9 9 9 9 8 9 9 9 9 9 9 10 10 9 9 9 10
12 12 12 12 11 11 10 10 9 9 9 9 8 8 8 8 8 8 8 8 8 8 8 8 8 7 7 7 7 7 7 7 7 7 7 7 7 8 8 8 8 8 8
Height
1571 1573 1574 1575 1573 1571 1569 1567 1565 1563 1561 1559 1557 1554 1552 1552 1552 1552 1553 1554 1554 1555 1557 1558 1558 1560 1560 1560 1560 1559 1559 1559 1555 1553 1554 1553 1549 1549 1549 1547 1545 1542 1540
1569 1569 1569 1568 1566 1564 1563 1560 1559 1556 1555 1553 1552 1550 1547 1545 1545 1545 1544 1543 1543 1544 1546 1548 1548 1551 1551 1552 1553 1552 1552 1552 1550 1546 1547 1546 1544 1542 1541 1540 1539 1537 1535
1566 1565 1564 1562 1559 1557 1555 1553 1551 1549 1547 1545 1544 1543 1541 1539 1537 1537 1536 1534 1534 1534 1534 1536 1537 1540 1541 1543 1544 1545 1546 1545 1544 1541 1539 1540 1537 1535 1533 1532 1531 1530 1528
1561 1558 1555 1552 1550 1548 1545 1544 1543 1541 1538 1537 1535 1534 1533 1532 1530 1528 1527 1525 1523 1523 1524 1524 1526 1529 1531 1533 1536 1537 1539 1540 1539 1536 1532 1532 1531 1529 1526 1524 1524 1524 1522
1552 1549 1546 1543 1541 1538 1534 1532 1532 1530 1528 1526 1524 1523 1522 1521 1520 1519 1517 1515 1513 1513 1513 1514 1515 1516 1519 1522 1524 1526 1529 1530 1531 1529 1525 1523 1521 1522 1520 1519 1517 1516 1515
1542 1538 1536 1533 1529 1526 1523 1521 1519 1517 1516 1514 1512 1510 1509 1509 1508 1508 1507 1505 1504 1504 1502 1502 1503 1505 1507 1508 1510 1512 1516 1516 1517 1520 1517 1514 1512 1512 1513 1513 1511 1509 1507
1541 1537 1532 1526 1521 1517 1513 1509 1506 1504 1502 1500 1499 1498 1495 1495 1496 1497 1498 1495 1493 1492 1492 1492 1492 1493 1493 1494 1495 1491 1500 1502 1502 1504 1504 1501 1503 1505 1504 1503 1503 1501 1499
1536 1532 1527 1521 1514 1509 1504 1499 1494 1491 1488 1485 1485 1484 1482 1480 1482 1484 1485 1484 1481 1479 1480 1480 1480 1480 1480 1481 1480 1477 1476 1480 1486 1491 1490 1491 1492 1495 1496 1495 1493 1493 1492
1533 1527 1522 1516 1509 1503 1496 1491 1486 1481 1475 1471 1469 1467 1467 1465 1468 1470 1472 1470 1467 1466 1466 1467 1469 1467 1466 1471 1472 1469 1468 1470 1473 1476 1481 1481 1482 1485 1486 1485 1483 1486 1483
1526 1520 1515 1508 1501 1493 1486 1479 1473 1468 1461 1457 1452 1451 1449 1447 1452 1454 1458 1457 1453 1452 1453 1453 1454 1453 1455 1459 1461 1462 1461 1462 1466 1470 1470 1470 1472 1474 1475 1475 1476 1476 1476
1522 1515 1508 1501 1491 1482 1473 1467 1460 1455 1448 1443 1437 1433 1432 1432 1434 1438 1441 1442 1439 1439 1439 1439 1441 1443 1446 1447 1450 1452 1452 1458 1459 1459 1459 1461 1463 1463 1462 1463 1465 1464 1464
1516 1509 1501 1492 1483 1472 1462 1453 1446 1440 1432 1427 1424 1418 1415 1415 1418 1422 1423 1426 1427 1426 1425 1427 1429 1433 1435 1438 1439 1440 1445 1448 1449 1449 1451 1451 1453 1451 1452 1454 1453 1453 1452
1509 1502 1495 1485 1474 1464 1452 1442 1434 1427 1419 1412 1409 1405 1401 1403 1405 1407 1408 1410 1411 1412 1413 1415 1420 1422 1425 1428 1428 1430 1433 1437 1439 1441 1441 1441 1441 1444 1444 1445 1445 1444 1440
1503 1496 1489 1479 1467 1455 1444 1433 1424 1415 1406 1399 1395 1392 1389 1389 1390 1393 1396 1398 1401 1403 1404 1406 1409 1412 1415 1416 1419 1422 1425 1428 1431 1431 1431 1432 1433 1434 1435 1436 1435 1433 1430
1499 1492 1486 1477 1464 1450 1437 1424 1413 1404 1396 1389 1385 1382 1380 1378 1378 1383 1387 1389 1393 1395 1398 1397 1397 1400 1404 1407 1411 1414 1417 1419 1421 1423 1425 1427 1427 1428 1429 1429 1428 1426 1422
1496 1489 1482 1474 1462 1450 1434 1417 1406 1394 1387 1381 1377 1375 1371 1369 1369 1372 1376 1379 1383 1384 1386 1385 1387 1392 1396 1401 1404 1407 1410 1413 1416 1418 1420 1421 1422 1422 1422 1423 1420 1419 1418
1491 1487 1478 1471 1461 1451 1437 1420 1403 1391 1382 1376 1373 1369 1362 1359 1359 1362 1367 1371 1373 1374 1376 1377 1380 1384 1389 1393 1397 1401 1405 1409 1412 1414 1415 1417 1416 1416 1416 1416 1414 1413 1414
1489 1483 1474 1468 1462 1454 1446 1430 1417 1401 1388 1377 1371 1364 1356 1351 1351 1354 1358 1362 1364 1366 1369 1372 1377 1382 1386 1390 1395 1398 1403 1405 1408 1410 1412 1413 1415 1415 1413 1414 1411 1411 1410
1486 1479 1472 1467 1461 1455 1448 1441 1426 1414 1398 1385 1374 1365 1358 1354 1349 1349 1354 1359 1363 1364 1367 1372 1376 1381 1386 1390 1392 1399 1403 1406 1408 1410 1412 1413 1413 1416 1415 1415 1415 1414 1415
1483 1477 1471 1465 1461 1455 1449 1444 1432 1421 1411 1400 1387 1380 1369 1363 1358 1356 1357 1358 1359 1366 1371 1375 1379 1385 1391 1395 1398 1400 1403 1407 1409 1411 1411 1413 1415 1417 1417 1415 1416 1416 1418
1480 1475 1471 1464 1459 1454 1448 1444 1437 1427 1419 1412 1405 1399 1389 1381 1367 1367 1364 1369 1373 1375 1378 1381 1385 1392 1397 1398 1399 1404 1406 1407 1409 1411 1413 1415 1416 1417 1417 1416 1417 1418 1419
1479 1474 1469 1465 1460 1455 1450 1442 1437 1432 1425 1418 1413 1407 1401 1400 1389 1387 1383 1383 1382 1387 1388 1392 1394 1397 1400 1402 1404 1406 1407 1409 1412 1414 1415 1415 1416 1418 1418 1419 1419 1419 1421
1478 1473 1469 1465 1461 1456 1451 1446 1440 1434 1428 1424 1419 1417 1414 1411 1408 1405 1402 1402 1400 1397 1400 1405 1404 1406 1408 1408 1409 1410 1412 1413 1413 1414 1416 1417 1417 1417 1417 1418 1418 1419 1419
1477 1472 1467 1464 1460 1456 1452 1448 1444 1440 1435 1430 1427 1423 1421 1420 1418 1417 1413 1411 1408 1407 1408 1412 1412 1413 1414 1413 1414 1415 1415 1415 1414 1414 1415 1416 1417 1418 1418 1417 1417 1417 1417
1473 1470 1466 1462 1458 1455 1452 1449 1446 1443 1440 1437 1434 1431 1428 1425 1423 1420 1418 1417 1416 1415 1416 1416 1415 1416 1417 1416 1416 1416 1416 1416 1416 1416 1416 1416 1417 1418 1418 1418 1417 1418 1418
1470 1467 1463 1460 1456 1453 1451 1449 1447 1443 1440 1437 1436 1434 1431 1430 1428 1426 1424 1423 1421 1420 1420 1420 1420 1420 1419 1419 1419 1418 1416 1416 1415 1415 1417 1417 1416 1417 1417 1417 1416 1415 1415
Wind_Speed
1 3 5 8 10 11 14 16 19 21 22 23 23 24 24 24 25 30 32 31 34 33 33 34 34 32 32 28 26 25 26 25 30 29 25 24 29 30 26 24 23 22 19
10 12 14 16 17 18 20 21 23 25 25 26 25 24 27 26 26 27 30 31 34 35 36 36 37 34 33 31 31 31 27 28 27 33 28 27 29 31 30 26 26 20 21
19 21 24 26 27 28 29 30 31 32 33 32 29 27 27 29 28 29 30 31 31 32 36 38 39 36 37 34 34 32 29 30 30 29 31 26 25 23 25 29 28 26 22
29 31 33 35 36 38 38 37 37 37 39 38 37 36 32 29 31 29 30 32 31 32 34 33 37 39 38 36 35 34 34 36 34 35 31 29 26 23 24 25 24 19 20
33 37 39 42 44 45 45 45 45 42 41 43 42 42 40 38 34 31 30 31 30 32 34 34 33 33 36 34 31 33 34 35 35 31 32 30 28 24 24 21 22 21 20
38 42 44 46 48 50 49 48 45 42 41 42 45 46 45 44 41 35 31 34 36 37 36 34 34 33 27 24 23 25 32 34 40 37 35 35 36 32 27 25 24 22 23
36 38 41 44 47 49 51 51 50 46 45 46 46 47 48 47 44 41 35 34 37 38 39 35 36 34 38 35 39 32 37 39 43 45 47 45 41 40 35 32 29 27 25
36 35 36 36 39 42 45 48 51 52 52 53 52 50 51 51 48 42 39 36 38 40 40 41 42 42 44 40 42 40 49 54 49 45 49 50 46 43 39 36 35 33 29
29 32 35 36 38 41 44 46 47 48 48 48 52 56 55 54 50 45 37 39 40 41 41 42 43 45 45 45 44 45 53 56 44 42 37 41 41 40 37 36 35 32 31
31 36 37 38 41 44 44 47 49 47 49 50 49 46 54 60 52 47 40 39 43 42 41 43 41 43 40 38 45 42 48 54 35 32 37 31 32 36 35 34 33 35 30
34 37 39 43 42 45 46 46 47 47 48 49 50 50 48 52 50 45 40 38 44 43 44 45 40 40 41 38 42 45 42 41 42 39 36 36 29 29 32 31 31 40 41
34 41 44 46 46 48 46 46 45 46 48 50 49 51 49 50 44 40 40 38 41 44 45 45 39 42 41 37 34 40 39 28 29 31 28 26 28 32 30 29 30 27 29
37 40 43 49 49 49 47 45 45 45 47 49 48 49 47 34 33 38 36 36 37 39 43 45 40 41 38 34 28 32 31 32 26 26 29 31 33 31 28 30 31 33 32
43 44 43 54 50 51 47 44 40 41 47 49 46 46 44 41 40 34 30 28 28 29 30 34 39 39 38 29 21 21 22 27 26 28 27 25 22 20 20 20 22 23 24
42 45 42 44 48 50 53 48 35 34 37 37 38 37 37 39 40 31 20 22 25 25 30 35 37 34 28 24 21 21 22 21 19 16 14 13 13 14 16 17 16 13 15
31 37 34 38 42 55 53 54 38 27 22 20 23 29 33 36 34 31 28 28 27 29 34 34 35 33 26 23 22 22 18 15 13 13 14 14 16 17 16 15 14 14 13
26 31 30 30 39 43 51 54 56 39 27 19 21 23 27 29 26 23 27 27 29 29 31 29 28 25 21 22 19 14 12 11 9 10 12 10 8 7 10 11 12 12 11
22 24 29 27 33 30 44 47 53 49 39 32 25 20 14 17 21 21 22 21 16 21 26 23 21 18 16 15 14 13 13 11 11 9 8 7 8 10 12 11 9 6 1
21 24 26 27 26 27 29 41 33 49 46 46 42 35 30 18 7 10 13 20 26 25 23 22 19 18 17 16 20 19 17 16 14 13 12 11 11 9 8 7 10 11 13
21 24 28 26 23 25 22 26 36 28 36 45 48 47 44 40 33 31 27 29 33 30 28 27 24 23 21 20 18 16 14 14 12 10 9 7 5 4 6 10 11 11 12
20 22 26 27 15 20 22 16 26 26 28 24 39 43 37 41 46 50 48 33 30 30 28 26 25 23 20 18 17 15 13 12 11 8 7 7 5 4 4 4 4 8 9
22 23 23 21 23 23 21 22 14 18 15 16 22 25 38 43 36 37 34 36 41 36 31 27 25 21 17 17 14 12 11 11 8 6 6 6 6 5 4 3 3 5 4
20 21 23 20 20 20 20 22 23 19 17 11 13 15 20 23 26 27 31 28 27 29 27 23 23 21 20 19 17 15 13 12 12 10 9 7 4 3 2 2 3 3 3
20 20 21 21 18 17 15 17 16 17 18 16 14 15 11 7 11 12 14 13 16 19 16 15 15 12 11 10 9 10 10 9 8 7 7 7 7 7 5 2 0 1 1
19 19 21 21 19 21 18 15 15 14 12 12 12 12 11 11 11 12 13 13 13 13 12 12 11 9 6 7 8 8 7 6 6 6 5 3 2 1 1 2 1 3 3
22 21 20 17 16 19 16 14 12 13 13 12 12 12 12 11 11 11 11 10 10 9 9 8 7 6 5 5 5 6 7 8 9 9 9 8 6 6 5 4 5 3 4
Wind_Direction
328 319 306 297 300 309 312 314 316 318 320 320 317 310 292 282 271 263 262 265 269 270 269 271 274 275 271 270 271 269 263 265 271 281 281 282 286 292 295 296 299 299 295
312 303 298 297 296 297 300 302 304 305 307 308 308 306 303 296 287 284 278 265 264 267 269 269 270 271 271 271 271 270 268 272 271 278 284 282 279 286 290 292 296 288 285
303 302 300 300 300 300 300 301 300 299 299 301 302 299 295 296 291 284 283 277 272 267 266 267 267 267 266 267 271 273 272 273 274 276 282 284 282 278 283 290 294 292 287
304 304 305 304 302 300 297 295 293 293 292 292 293 294 293 289 287 286 284 280 279 280 273 268 266 265 265 268 269 274 276 277 278 278 276 279 280 275 274 281 285 283 283
311 306 302 297 296 295 296 294 292 290 287 288 288 287 286 287 287 283 280 277 279 277 274 274 266 263 262 266 270 274 277 281 278 270 268 271 269 269 267 274 274 282 280
311 308 304 298 293 292 291 291 290 289 286 283 282 283 283 282 283 282 279 275 273 273 273 270 268 260 256 255 261 256 260 266 272 267 265 263 264 266 273 273 271 274 277
320 316 310 300 294 290 287 288 287 286 283 281 280 279 279 278 278 277 278 274 269 267 265 267 269 259 246 252 252 247 267 267 260 260 263 261 262 268 272 273 274 272 267
327 326 326 319 309 303 298 293 291 290 286 281 277 275 275 275 275 277 278 272 267 263 261 259 263 262 255 256 258 265 248 256 260 255 257 262 264 269 271 277 279 274 272
328 323 323 320 314 310 306 303 299 296 290 284 280 278 274 273 275 276 274 272 267 262 258 257 254 256 262 249 252 264 255 253 259 264 266 262 261 261 264 269 271 273 269
329 329 328 321 314 309 304 299 297 293 291 291 286 277 276 273 272 274 272 268 268 262 258 255 255 253 257 257 249 259 253 259 258 253 267 262 263 260 259 260 269 262 266
340 338 331 339 330 321 311 305 299 293 289 286 288 287 279 273 271 271 268 261 262 263 258 256 250 250 251 258 249 250 257 264 265 266 264 264 259 257 258 264 273 258 259
349 347 346 340 337 330 320 310 302 297 294 288 286 287 282 276 272 266 263 256 257 260 256 253 251 252 258 262 258 250 255 255 258 259 255 259 260 259 269 273 278 270 263
334 335 346 344 340 337 329 320 309 300 291 286 281 280 280 270 265 265 264 259 255 253 252 250 248 256 258 262 254 249 242 247 247 252 257 262 267 269 270 268 270 272 273
320 324 327 341 339 347 339 326 308 302 294 281 277 279 277 270 266 264 270 263 254 251 251 253 252 254 253 250 233 238 239 238 250 262 268 267 265 263 266 270 270 270 269
325 326 332 343 349 348 347 338 326 303 298 286 279 280 279 270 267 271 249 245 259 257 257 260 249 238 232 224 236 241 237 233 235 247 255 253 256 263 266 269 270 277 268
325 329 332 345 349 359 355 354 358 341 314 308 294 282 280 276 278 264 232 244 242 271 268 248 235 230 223 231 228 210 212 205 222 233 241 252 260 264 264 267 268 269 271
332 336 327 341 343 1 7 5 2 3 20 13 346 330 289 273 266 256 251 253 262 264 249 231 221 219 207 192 197 195 198 203 216 235 238 254 265 259 259 268 272 269 270
334 342 328 326 339 340 6 12 11 10 13 38 38 31 357 283 265 256 243 249 227 205 211 195 174 171 173 180 185 177 177 174 155 148 134 116 96 76 78 74 72 72 86
346 342 337 339 349 339 339 0 9 20 22 25 35 47 51 52 239 203 163 172 173 154 145 143 147 154 154 144 137 135 135 130 120 112 108 100 93 89 91 72 71 71 78
339 348 347 354 10 359 356 11 22 15 26 31 34 37 44 45 68 100 114 109 110 111 112 115 115 117 120 121 125 125 126 121 117 112 102 100 103 109 114 104 101 100 93
340 349 358 1 4 5 2 347 25 31 35 40 47 40 38 51 55 65 72 96 105 102 102 102 107 114 117 115 116 120 112 103 96 94 115 134 122 105 106 94 134 137 125
343 343 349 356 6 21 10 7 343 8 13 35 45 47 46 47 52 57 56 69 72 74 75 80 89 93 98 102 105 105 108 101 101 102 116 111 105 98 89 78 85 111 163
339 349 350 344 348 354 15 22 21 22 8 7 11 34 55 58 55 58 63 68 79 83 75 68 72 82 88 90 89 92 90 84 77 70 57 54 63 83 96 56 70 80 90
331 334 343 350 345 339 347 4 11 18 22 21 17 20 23 31 41 69 77 79 84 86 77 66 66 75 93 89 80 89 93 87 83 71 61 59 54 47 42 39 106 222 164
326 328 332 337 345 344 341 346 353 0 9 16 20 24 27 35 36 44 54 63 76 83 90 100 108 113 102 86 76 75 65 54 43 43 46 55 42 8 7 8 281 329 282
318 319 327 330 339 341 342 348 352 355 357 1 10 16 19 23 23 24 27 36 48 58 65 69 70 66 55 42 30 14 2 352 345 339 337 332 325 313 310 302 274 275 287